CAPE
36 0 0 0 11 0 0 15 124 247 58 17 11 133 3 132 570 497 328 1102 1030 812 619 329 900 888 566 435 272 267 559 817 1011 573 363 258 170 98 0 0 0 0 0 0 0 0 0 0 0
0 0 0 0 3 6 7 12 174 70 69 116 21 0 43 182 445 163 177 811 780 669 793 194 1028 982 456 348 297 590 814 982 509 192 32 0 0 0 0 0 0 0 0 0 0 0 0 0 0
0 6 0 0 2 16 23 12 116 69 178 168 323 48 3 256 315 399 536 639 442 473 538 441 1095 962 447 247 578 912 961 460 13 0 0 0 0 0 0 0 0 0 0 0 0 0 0 0 0
0 0 0 0 0 0 0 0 0 150 176 269 407 0 647 310 614 594 482 455 241 225 440 884 1042 944 380 373 850 1035 555 49 0 0 0 0 0 0 0 0 0 0 0 0 0 0 0 0 0
0 0 0 0 0 0 0 0 0 389 421 421 829 821 1007 807 737 556 556 273 183 537 362 542 1177 810 395 797 1352 800 381 0 0 0 0 0 0 0 0 0 0 0 0 0 0 0 0 0 0
0 0 0 0 0 0 0 0 1 46 166 270 762 451 1114 829 731 650 363 189 480 652 292 474 870 733 818 1459 1133 612 196 20 0 0 0 0 0 0 0 0 0 0 0 0 0 0 0 0 0
0 0 0 0 0 6 8 0 3 322 10 86 0 0 94 937 762 676 445 123 181 243 470 391 215 366 1126 1304 880 282 161 103 0 0 0 0 0 0 0 0 0 0 0 0 0 0 0 0 0
0 0 0 0 0 59 9 7 10 285 0 22 0 0 115 1281 856 664 410 78 34 256 333 302 116 68 914 657 426 174 58 0 0 0 0 1 0 0 0 0 0 0 0 0 0 0 0 0 0
0 0 0 0 1 38 0 22 26 78 0 0 868 241 752 1277 771 501 248 116 51 221 254 353 131 169 458 628 250 123 29 6 0 0 0 49 0 0 0 0 0 0 0 0 0 0 0 0 0
0 0 0 1 1 1 0 0 0 0 109 292 802 1483 1296 1115 690 300 170 156 94 82 187 304 233 267 471 473 181 91 4 21 36 0 1 6 0 0 0 0 0 0 0 0 0 0 2 1 0
0 0 0 0 0 0 0 0 0 0 23 87 230 1523 1430 1215 993 358 193 166 150 180 368 198 685 1151 580 546 504 285 242 559 436 134 157 51 25 0 0 0 0 0 0 0 0 0 0 0 0
0 0 0 0 0 0 0 0 0 0 0 1 83 553 1552 1467 1064 406 370 363 308 458 557 473 688 1131 1474 569 649 662 463 790 338 228 36 53 59 40 0 0 0 0 0 0 5 0 0 0 0
0 0 0 0 0 0 0 0 0 0 14 12 1160 1487 1517 1503 1210 528 333 402 419 539 981 983 1462 2060 2286 1367 1507 802 448 690 404 270 36 95 120 42 0 0 0 0 0 1 9 0 0 0 0
0 0 0 0 0 0 0 0 0 0 0 226 179 1390 1418 1471 1472 836 530 373 650 643 1238 1214 1062 2027 2130 2043 1627 1309 1020 731 597 336 64 36 142 101 14 0 0 0 0 0 6 22 21 15 1
0 0 0 0 0 0 0 0 0 0 0 26 308 423 625 1930 1570 1343 1090 1107 800 904 1464 1708 1484 1757 2423 2611 1808 1005 875 465 292 126 52 27 56 4 0 0 0 0 0 0 0 0 0 15 2
0 0 0 0 0 0 0 0 0 0 0 0 100 791 1245 1401 1838 1901 1424 1811 1743 1281 1647 1696 1143 1657 2338 2678 1903 1376 897 632 210 333 19 18 5 0 0 0 0 0 0 4 15 7 49 22 37
0 0 0 0 0 0 0 0 179 186 79 8 834 1395 1339 1747 2336 2662 1944 2144 1940 2312 1971 2130 1966 1588 2281 2745 2029 877 448 236 234 132 25 4 0 0 0 0 0 0 0 0 7 4 7 40 8
0 0 0 0 0 1 4 78 154 150 75 17 576 1243 1384 1633 2198 2928 2611 2423 2478 2423 2395 2461 2116 2282 2485 2036 1305 601 329 160 190 159 93 0 0 0 0 0 0 0 0 2 3 4 0 0 2
0 0 0 0 0 2 31 163 166 190 295 516 738 748 1107 1884 2344 2871 3042 2667 2717 2977 2853 2832 2717 3092 2101 1613 889 270 311 288 280 78 1 0 4 0 0 0 0 0 0 0 0 0 0 0 0
0 0 0 0 0 0 66 180 246 396 725 904 1074 1283 1497 1597 2625 2575 3004 3090 3060 3551 3401 2704 3017 2705 2172 1680 1164 806 369 350 123 8 0 0 0 0 0 0 0 0 0 0 0 0 0 0 0
0 0 0 0 0 0 10 217 56 7 14 96 1117 1654 1696 2025 2544 2287 2343 2880 2870 3589 3004 2779 2491 2479 2390 1554 534 117 9 10 4 6 1 0 0 0 0 0 0 0 0 0 0 0 0 0 0
1 0 0 0 0 0 3 106 0 1 13 0 197 1510 1660 1959 2305 2367 2461 3027 3000 2300 2823 2259 2318 1768 1904 1899 612 161 156 37 1 8 8 0 0 0 0 0 0 0 0 0 0 0 0 0 0
0 0 0 0 0 0 9 85 85 8 6 270 851 1296 1475 1834 1990 2499 2671 2820 2737 2455 2142 1998 1974 2069 2145 1534 1338 638 496 584 0 0 2 3 0 0 0 0 0 0 0 0 0 0 0 0 0
0 0 0 0 0 4 35 54 144 102 19 176 558 594 896 1336 1741 1995 2157 2210 2412 2134 2052 1847 1856 2289 2007 1521 1358 1189 1174 390 0 3 4 3 1 0 0 0 0 0 0 0 0 0 0 0 0
0 0 3 63 125 168 115 35 226 53 39 9 307 285 309 475 1217 1813 1709 2000 2231 2088 1948 1947 1978 2455 2261 1950 1446 917 803 606 45 0 4 4 3 1 0 0 0 0 0 0 0 0 3 0 0
18 0 2 103 144 125 68 155 194 151 17 0 34 246 302 365 727 1245 1999 2095 2332 2215 2200 1948 2218 2300 2362 1607 1595 1345 907 499 467 0 27 12 3 0 0 0 0 0 0 0 0 0 0 0 0
0 0 16 7 35 82 97 106 266 38 0 0 57 203 229 200 525 643 681 1871 2388 2570 2606 2350 2560 2615 2555 2042 2111 1444 1167 1087 647 506 243 176 10 0 0 0 0 0 0 0 0 0 0 0 0
0 0 0 4 38 153 69 85 120 8 1 0 6 31 243 278 427 608 902 1154 1074 1061 1783 2442 3059 2765 2438 2570 2372 1516 1385 1333 771 713 235 5 0 0 0 0 0 2 3 3 0 0 0 0 0
0 0 0 0 0 7 5 92 226 195 12 1 1 18 419 258 982 1378 1325 1220 1400 1122 872 2750 2690 2360 2140 2165 1886 1640 1580 1154 629 126 0 0 0 0 0 0 0 0 0 0 6 0 12 0 0
0 0 0 0 0 21 31 55 28 0 0 0 0 2 247 793 785 642 462 735 442 271 242 1560 2017 2033 2480 1965 1654 1541 1519 1100 454 45 2 1 0 0 0 0 0 0 0 0 0 0 0 0 1
CIN
-552 0 0 0 -111 0 -8 -15 -6 -4 -30 -66 -10 -3 -18 -48 -15 -21 -10 -33 -59 -96 -99 -95 -21 -23 -37 -38 -53 -41 0 0 0 -3 -21 -46 -85 -124 0 0 0 0 0 0 0 0 0 0 0
0 0 0 0 -38 -25 -62 -4 -1 -31 -38 -52 -25 0 -21 -39 -33 -32 -6 -14 -48 -94 -68 -133 -18 -23 -54 -59 -53 -5 0 -2 -5 -53 -69 0 0 0 0 0 0 0 0 0 0 0 0 0 0
0 -90 0 0 -7 -5 -20 -1 -3 -43 -49 -17 -9 -27 -17 -28 -12 -10 -4 -17 -44 -56 -63 -79 -17 -22 -49 -59 -6 0 0 -10 -17 0 0 0 0 0 0 0 0 0 0 0 0 0 0 0 0
0 0 0 0 0 0 0 0 -1 -7 -31 -12 -86 0 -25 -46 -14 -31 -2 -18 -80 -78 -61 -17 -13 -14 -43 -36 0 0 0 -121 0 0 0 0 0 0 0 0 0 0 0 0 0 0 0 0 0
0 0 0 0 0 0 0 0 0 -2 -4 -5 -29 -19 -21 -24 -54 -52 -17 -42 -84 -42 -90 -48 -2 -9 -38 0 0 -5 -12 0 0 0 0 0 0 0 0 0 0 0 0 0 0 0 0 0 0
0 0 0 0 -1 0 0 0 -1 -10 -162 -84 -4 -94 -15 -64 -48 -23 -22 -31 -30 -41 -105 -64 -14 -11 -2 0 0 -11 -69 -68 0 0 0 0 0 0 0 0 0 0 0 0 0 0 0 0 0
0 0 0 0 -2 -1 -2 0 -2 -94 -245 -215 0 0 -142 -10 -31 -6 -5 -16 -13 -72 -67 -70 -117 -70 0 -1 -12 -61 -104 -147 0 0 0 0 0 0 0 0 0 0 0 0 0 0 0 0 0
0 0 0 0 -4 -9 -34 -32 -4 -73 0 -297 -1 0 -283 -7 -32 -12 -1 -39 -31 -33 -73 -85 -155 -179 -12 -31 -67 -131 -183 0 0 0 0 -9 0 0 0 0 0 0 0 0 0 0 0 0 0
0 0 0 0 -1 -8 0 -21 -23 -9 0 0 -10 -338 -120 -5 -36 -34 -24 -34 -33 -3 -34 -70 -136 -128 -37 -47 -125 -154 -199 -59 0 0 0 -108 0 0 0 0 0 0 0 0 0 0 0 0 0
0 0 0 -2 -1 -2 0 0 0 0 -3 -5 -5 -6 -37 -58 -64 -51 -39 -33 -40 -14 -3 -30 -87 -57 -25 -58 -170 -166 -27 -105 -103 0 -7 -29 0 0 0 0 0 0 0 0 0 0 -31 -35 0
0 0 0 0 0 0 0 0 0 0 -9 -131 -219 -3 -52 -51 -42 -60 -60 -54 -58 -42 -3 -46 -22 -15 -11 -77 -84 -84 -89 -27 -26 -79 -61 -112 -84 0 0 0 0 0 0 0 0 0 0 0 0
0 0 0 0 0 0 0 0 0 0 0 -5 -259 -244 -37 -41 -47 -72 -67 -62 -69 -37 -15 -65 -35 -13 -19 -66 -29 -23 -69 -15 -75 -95 -144 -118 -97 -72 0 0 0 0 0 0 -26 0 0 0 0
0 0 0 0 0 0 0 0 0 0 -4 -22 -38 -16 -39 -28 -44 -64 -91 -86 -102 -74 -34 -82 -43 -16 -11 -44 -17 -78 -145 -71 -131 -147 -213 -160 -129 -136 0 0 0 0 0 -10 -19 0 -1 0 0
0 0 0 0 0 0 0 0 0 0 0 -7 -16 -9 -17 -25 -16 -60 -84 -110 -128 -133 -86 -117 -139 -38 -10 -9 -30 -47 -91 -125 -131 -184 -268 -249 -168 -159 -200 0 0 0 0 -6 -20 -28 -27 -25 -7
0 0 0 0 0 0 0 0 0 0 0 -11 -9 -9 0 -1 -2 -30 -54 -92 -118 -146 -141 -108 -146 -84 -16 -4 -18 -79 -89 -110 -146 -225 -246 -291 -178 -53 0 0 0 0 0 0 0 0 0 -23 -25
0 0 0 0 0 0 0 0 0 -1 0 0 -3 -12 -1 -3 -2 -6 -41 -51 -79 -130 -133 -116 -145 -61 -11 -3 -7 -11 -53 -122 -210 -108 -286 -283 -216 0 0 0 0 0 0 -16 -15 -33 -24 -14 -36
0 0 0 0 0 0 0 0 -3 -8 -26 -34 -9 -11 -26 -3 -2 -3 -20 -19 -45 -41 -98 -43 -14 -52 -10 -4 -4 -140 -203 -217 -149 -154 -214 -185 0 0 0 0 0 0 0 0 -12 -16 -20 -33 -48
0 0 0 0 0 -1 -9 -2 -5 -16 -50 -38 -3 -9 -8 -9 0 -4 0 -6 -19 -55 -51 -15 -5 -13 -4 -18 -49 -136 -177 -212 -137 -102 -84 0 0 0 0 0 0 0 0 -12 -15 -11 0 0 -11
0 0 0 0 0 -3 -74 -2 -11 -7 -4 0 -1 -3 -3 -2 -2 -1 -1 -3 -6 -14 -26 -5 -7 -8 -19 -23 -70 -202 -161 -147 -113 -133 -12 0 -16 0 0 0 0 0 0 0 0 0 0 0 0
0 0 0 0 0 0 -43 -2 -4 -10 -10 -2 -1 -11 -3 -2 -10 -7 -1 -2 -5 -7 -14 -44 -9 -11 -4 -4 -49 -70 -128 -116 -153 -73 0 0 0 0 0 0 0 0 0 0 0 0 0 -6 0
0 0 0 0 0 0 -9 -78 -375 -172 -450 -406 -6 -1 -27 -3 -12 -21 -4 -1 -12 -25 -65 -58 -28 -16 0 -14 -160 -297 -168 0 0 -1 0 0 0 0 0 0 0 0 0 0 0 0 0 0 0
-2 0 0 0 0 -1 -11 -39 -1 -163 -141 0 -148 -1 -37 -33 -3 -1 -107 -39 -114 -189 -74 -107 -50 -52 -4 -3 -146 -274 -220 -181 0 0 0 0 0 0 0 0 0 0 0 0 0 0 0 0 0
0 0 0 0 0 0 -2 -5 -229 -188 -467 -77 -2 -1 -16 -40 -32 -8 -34 -37 -57 -85 -100 -89 -42 -3 0 -16 -9 -81 -64 -41 0 0 0 0 0 0 0 0 0 0 0 0 0 0 0 0 0
0 0 0 0 0 -2 -7 -2 -125 -185 -185 -38 -4 -4 -8 -44 -77 -93 -95 -67 -28 -53 -59 -70 -41 0 -3 -19 -17 -4 0 -119 0 0 0 0 0 0 0 0 0 0 0 0 0 0 0 0 0
0 0 -4 -15 -7 0 -16 -13 -60 -197 -157 -7 -3 -14 -54 -70 -50 -75 -91 -61 -45 -58 -55 -45 -23 0 -1 0 0 -15 -17 -50 -385 0 0 0 0 0 0 0 0 0 0 0 0 0 -3 0 0
-1 0 -1 -4 -3 -33 -8 -3 -28 -88 -41 0 -71 -32 -72 -79 -59 -61 -57 -55 -57 -64 -60 -56 -11 0 -9 -25 -9 -3 -10 -70 -87 -162 -305 -395 -1 0 0 0 0 0 0 0 0 0 0 0 0
0 0 -26 -48 -13 -3 -1 -10 -9 -45 0 0 -65 -38 -61 -74 -28 -49 -54 -9 -18 -15 -20 -22 -1 -7 -11 -24 -5 -11 -3 -1 -38 -54 -153 -168 -173 0 0 0 0 0 -2 0 0 0 -2 0 0
0 0 0 0 0 -6 -13 -13 0 -19 -7 0 -76 -60 -38 -25 -18 -48 -35 -31 -36 -32 -3 -10 -3 -3 -7 -1 -8 -20 -14 0 -16 -29 -157 -153 0 0 0 0 0 -13 -11 -9 0 0 0 0 0
0 0 0 0 0 -5 -6 -2 -5 -2 -4 -3 0 -6 -18 -27 -12 -15 -26 -34 -15 -5 -3 -15 -14 -41 -24 -10 -28 -26 -11 -6 -58 -247 0 0 0 0 0 0 0 0 0 0 -7 0 -3 -8 0
0 0 0 0 0 -2 -17 -28 -18 -1 -1 0 0 -1 -2 -18 -24 -27 -14 -4 -32 -22 -22 -7 -8 -4 -15 -52 -38 -14 -4 -20 -96 -312 0 0 0 0 0 0 0 0 0 0 0 0 0 0 -5
Wind_Speed
9 11 10 10 8 12 15 8 9 16 11 13 8 9 20 19 12 8 12 20 24 20 16 16 13 13 13 12 11 10 9 8 14 13 12 12 12 12 11 10 10 11 10 11 12 12 11 11 10
12 16 11 8 11 8 11 8 17 13 10 11 8 12 21 19 17 17 14 22 23 19 15 14 14 13 12 12 11 10 9 13 13 12 12 11 11 11 11 10 10 11 11 11 12 11 11 10 10
11 16 9 7 13 6 8 9 14 13 8 4 10 16 10 14 12 18 22 22 22 16 16 14 14 13 13 12 11 10 13 13 12 12 12 12 12 11 9 10 11 11 11 11 12 12 12 12 11
8 8 8 11 8 4 12 10 3 13 5 2 19 9 6 11 10 18 20 22 19 19 18 15 14 13 13 11 10 13 12 12 12 12 12 12 11 10 9 11 10 10 10 10 11 12 12 12 11
9 8 12 16 19 11 10 6 6 6 8 2 18 13 12 12 17 19 19 18 19 21 18 15 14 12 11 11 13 14 12 11 11 12 11 10 9 9 9 10 10 9 10 10 11 11 11 10 10
8 10 14 15 7 9 4 4 3 2 11 7 9 21 14 15 15 16 17 18 24 20 18 15 14 12 11 11 14 13 12 11 10 10 9 8 9 8 9 9 9 9 10 10 10 10 9 8 8
13 11 17 20 4 7 10 2 7 18 29 20 22 27 13 11 14 14 15 17 21 23 19 15 13 12 12 13 15 12 11 10 9 7 6 7 8 8 8 9 9 8 8 7 7 7 8 9 9
11 11 18 18 10 11 5 5 12 15 10 30 17 13 9 12 15 14 14 16 17 21 20 17 14 13 13 11 14 12 11 10 7 5 6 8 8 10 9 9 7 6 5 4 4 4 6 11 10
6 10 14 15 4 12 5 6 8 6 17 16 12 19 18 19 18 15 15 14 13 17 19 19 16 14 14 14 11 11 11 10 7 6 7 6 5 8 10 8 6 3 1 5 5 3 4 10 14
11 12 15 11 10 10 7 6 9 5 13 10 15 25 21 20 16 15 14 13 14 12 17 17 15 15 15 13 13 10 10 8 8 7 7 7 3 3 7 7 8 7 6 6 10 10 9 11 7
11 14 15 8 7 11 11 8 8 6 5 16 22 18 19 19 15 14 14 14 14 12 8 16 10 7 14 13 9 7 6 5 4 3 2 5 2 3 4 4 4 5 8 5 7 6 6 8 6
8 12 11 10 4 4 11 11 2 7 4 14 28 20 18 17 14 13 11 11 14 12 8 14 9 4 8 9 8 7 7 4 5 5 3 3 3 1 3 2 3 1 4 4 4 4 2 6 7
8 14 3 8 11 4 11 7 12 9 11 11 24 21 17 15 14 13 13 11 13 11 10 13 9 5 5 7 3 7 6 4 7 6 4 2 2 3 3 2 3 3 4 3 2 4 3 4 6
4 10 8 6 9 12 8 11 11 9 8 12 6 19 20 20 16 14 14 13 14 12 11 14 13 7 7 4 6 4 5 5 3 5 4 5 2 3 1 3 1 3 4 6 5 2 2 2 5
7 10 12 9 8 6 5 11 13 11 8 2 11 6 14 20 18 15 13 13 12 13 14 12 13 11 8 5 5 5 3 4 4 4 3 4 3 3 0 2 2 3 4 3 3 4 1 1 4
11 16 13 10 2 7 3 14 22 13 5 9 2 12 4 10 15 15 13 13 11 13 14 12 12 11 8 6 5 3 4 6 4 3 3 5 4 2 2 1 5 5 4 4 2 3 4 1 4
15 13 10 10 2 4 7 7 13 7 6 6 12 11 2 8 11 11 13 13 12 11 15 12 7 13 10 6 3 8 8 5 2 1 2 4 3 3 2 2 5 4 4 3 2 1 3 2 2
8 4 4 2 9 8 10 4 11 4 3 6 5 8 6 6 8 12 11 12 11 14 12 10 7 11 9 7 6 6 4 4 2 3 1 4 1 4 2 4 5 2 4 3 3 5 4 3 4
10 10 6 7 6 7 17 7 9 8 8 6 7 3 8 11 9 6 9 12 12 13 12 9 7 11 8 6 4 4 1 2 3 1 3 3 5 5 1 3 4 2 4 5 4 1 2 4 2
4 7 6 5 4 5 13 6 12 15 15 10 9 10 11 10 13 7 6 10 12 12 13 8 9 10 7 6 3 2 3 1 2 3 2 6 6 7 5 4 5 4 3 2 1 2 3 3 2
6 8 7 5 6 6 9 12 14 14 17 19 9 11 9 8 15 9 5 4 7 12 13 11 12 11 7 7 6 4 4 1 1 2 3 2 5 3 6 2 1 3 2 2 2 1 4 3 3
3 5 5 6 7 10 10 4 6 11 17 27 33 11 11 10 12 11 14 12 13 10 11 13 11 8 5 5 7 7 6 4 5 4 3 2 3 3 11 5 2 2 2 2 2 3 1 1 4
8 6 8 9 9 11 13 4 10 17 9 9 12 13 11 11 11 12 11 12 12 12 11 9 10 8 7 6 5 6 6 1 5 4 6 5 3 6 9 3 4 2 2 1 2 3 2 3 3
10 9 11 11 12 11 2 7 8 6 9 6 14 13 12 12 12 9 7 6 8 8 8 8 6 6 8 9 8 4 5 6 5 5 7 5 5 5 8 5 4 2 3 2 1 2 2 1 4
8 10 10 4 3 13 4 7 7 14 10 5 13 15 11 10 12 11 8 7 8 7 7 7 6 6 9 9 6 7 6 4 8 8 6 6 5 5 7 4 5 4 3 4 2 1 1 1 3
8 6 8 9 3 6 9 5 10 16 14 12 12 12 13 9 10 8 11 10 10 10 9 9 8 6 10 8 8 7 7 4 5 8 7 6 6 7 6 6 5 6 6 5 3 3 2 4 3
9 5 10 8 14 8 4 11 16 15 13 13 14 14 11 10 11 10 8 11 13 11 11 10 7 7 9 12 8 7 7 6 6 9 8 5 5 2 9 9 6 7 6 5 4 2 5 3 3
9 12 7 4 5 5 10 3 11 11 11 11 12 13 13 9 13 8 4 5 2 0 8 7 8 6 5 5 8 9 6 6 5 4 8 4 3 2 6 8 6 6 5 5 6 4 3 3 0
8 8 3 5 5 8 7 5 9 7 6 4 5 8 15 11 14 11 9 8 9 10 8 11 10 8 5 6 6 5 8 5 4 5 4 4 4 4 4 7 6 7 6 6 5 5 5 5 6
5 7 13 5 5 7 7 9 9 3 1 4 4 8 8 12 11 8 10 10 1 5 7 8 4 6 10 7 4 3 4 5 5 5 7 8 8 5 5 6 6 7 6 7 7 6 6 7 6
Wind_Direction
240 231 238 252 260 65 287 75 50 80 71 56 55 40 77 58 40 121 136 120 125 127 129 132 129 123 121 117 114 109 110 111 87 79 72 68 66 65 63 64 57 51 42 40 35 32 28 23 18
260 260 250 263 258 68 283 296 94 75 73 128 64 64 68 75 94 124 131 122 121 131 134 135 129 126 124 117 115 119 120 92 84 81 81 78 74 71 67 60 52 45 41 36 32 30 25 23 21
262 266 278 243 256 193 214 41 85 104 142 198 102 65 53 90 117 138 121 128 123 127 120 127 131 124 124 127 128 122 102 94 95 93 87 78 71 66 59 51 52 46 36 32 36 32 33 30 25
259 228 239 247 258 81 94 39 80 131 110 50 114 69 68 95 122 123 138 121 120 132 122 129 128 128 133 130 137 111 105 106 101 93 87 78 69 66 59 54 45 38 36 40 39 35 32 28 18
239 276 253 263 270 96 93 99 305 69 16 91 122 104 88 82 106 139 131 128 141 116 128 132 126 128 133 141 129 117 112 106 99 92 83 78 79 75 67 53 39 38 47 42 35 30 22 18 6
232 230 267 262 99 61 326 114 360 87 138 329 63 58 91 116 142 145 142 144 126 130 130 134 131 135 142 142 121 110 114 114 106 98 92 90 90 78 67 52 47 49 49 36 27 25 14 359 349
256 256 268 295 92 105 65 349 276 74 44 359 99 72 293 166 153 156 157 134 132 126 127 132 138 144 146 124 111 119 121 116 111 110 122 122 120 105 84 71 61 55 44 30 22 22 0 344 333
253 286 288 277 299 92 121 270 30 97 102 252 255 154 226 173 164 161 146 136 138 134 140 147 143 155 149 138 123 130 128 125 125 142 159 165 158 137 119 124 72 57 33 3 352 356 333 320 314
268 267 252 259 258 155 101 122 222 81 149 216 94 145 186 151 152 161 138 144 147 145 146 144 150 163 162 131 134 136 139 145 155 178 188 189 210 163 117 109 119 122 282 284 273 263 273 290 299
242 237 263 10 30 41 52 1 51 305 173 164 114 117 134 151 154 153 149 150 147 155 152 143 151 173 154 136 153 157 163 179 188 191 185 202 123 59 104 137 162 191 215 264 286 306 279 235 264
227 264 309 8 23 356 349 289 62 275 47 89 27 108 144 150 155 154 153 158 145 154 142 131 153 160 147 133 173 168 161 178 116 118 264 48 97 180 170 155 181 209 216 235 220 34 11 2 11
251 263 298 312 121 275 262 301 298 283 79 156 158 159 155 148 154 157 151 151 141 149 138 123 132 137 114 140 173 148 124 145 151 102 122 157 222 99 3 36 326 264 152 359 48 91 7 9 7
240 277 294 270 297 286 275 303 299 297 74 110 148 137 143 151 156 155 154 148 141 150 136 125 129 161 120 140 148 120 139 142 138 158 103 70 76 93 72 6 329 341 352 140 87 53 320 101 42
338 276 305 259 248 241 254 257 248 268 82 118 134 145 166 158 158 153 159 164 155 164 147 140 158 161 148 197 128 99 94 136 117 96 120 143 72 87 158 200 334 66 25 5 3 98 312 93 115
284 258 236 224 246 262 264 267 259 264 123 315 168 215 189 144 145 155 168 156 173 166 157 162 164 159 152 152 115 143 126 94 68 80 101 106 76 133 111 99 315 56 81 3 306 327 281 171 126
241 242 244 123 257 181 198 272 234 213 138 225 203 12 84 130 149 158 168 159 168 167 157 162 175 161 151 139 160 154 128 103 100 129 166 126 142 118 273 129 70 41 344 224 228 242 267 0 105
223 241 169 147 106 154 203 248 61 36 298 279 103 120 146 137 148 152 165 153 148 148 156 159 199 155 158 129 158 77 87 82 106 85 176 142 116 121 310 56 73 38 293 289 275 209 342 64 312
236 226 114 80 148 221 197 25 74 102 269 274 143 152 159 190 169 149 173 153 147 136 149 155 176 151 155 108 60 74 91 127 154 233 186 119 118 90 326 83 70 11 296 261 47 25 357 357 300
351 332 71 94 76 338 355 75 69 24 7 22 9 0 192 166 150 147 170 154 151 142 140 158 161 128 123 128 123 68 87 251 177 180 47 56 39 71 19 24 131 223 304 73 23 44 229 306 306
304 243 218 109 127 276 179 236 65 48 23 39 42 31 8 151 125 153 177 163 161 153 144 139 135 125 140 147 116 115 175 314 183 121 49 37 36 17 305 31 4 35 10 28 13 335 339 251 133
222 313 43 306 149 232 256 58 27 338 1 338 1 69 48 52 135 140 173 202 172 153 133 149 122 144 159 136 106 92 74 70 183 143 156 83 74 357 290 147 342 13 348 265 172 260 277 313 314
242 66 329 283 258 283 173 134 16 61 50 279 266 83 73 67 88 116 82 67 65 65 83 110 128 140 168 174 144 175 230 190 190 192 150 155 141 251 261 163 223 245 340 87 184 249 35 269 289
31 335 285 291 284 266 245 156 156 146 185 281 109 105 92 71 75 69 84 96 90 91 109 122 146 164 183 162 212 187 230 43 115 140 183 179 207 253 277 181 221 113 17 316 13 50 38 313 280
329 275 251 255 254 237 102 301 164 194 193 194 116 93 95 102 98 92 92 114 111 115 119 134 154 177 177 188 206 229 262 145 148 191 198 196 197 214 255 231 137 164 230 137 254 210 222 4 349
223 271 269 248 329 308 144 271 135 213 208 164 117 115 111 113 123 134 121 115 119 128 132 141 180 195 184 198 196 225 234 159 174 175 210 206 203 208 219 193 172 173 192 212 183 167 238 126 26
283 342 304 314 325 196 203 120 138 182 194 113 111 117 134 133 124 123 142 156 161 167 174 182 181 210 182 181 207 199 215 221 180 182 205 208 207 199 174 198 192 181 195 182 207 166 220 198 101
316 265 346 313 267 264 143 63 146 144 144 149 146 147 154 151 154 156 158 171 170 174 183 198 190 191 171 197 192 196 205 200 207 196 213 205 195 229 164 184 195 212 179 181 147 226 190 119 160
277 338 294 276 300 269 5 184 113 148 162 164 169 174 153 161 153 118 95 77 65 106 167 113 148 179 202 186 175 190 192 204 218 201 198 190 183 231 191 173 197 185 199 157 174 199 171 175 37
185 233 217 329 309 327 326 95 155 153 164 167 210 200 153 172 119 137 164 176 213 202 186 151 165 168 184 175 187 200 187 170 166 183 189 199 205 218 197 170 192 201 192 182 192 215 184 171 224
314 324 316 303 290 327 320 299 75 107 53 210 240 283 113 110 140 178 216 167 169 31 27 112 113 184 166 161 179 209 178 162 188 217 227 214 205 198 198 198 213 209 182 186 194 209 202 200 184